COSMOS 252 DEB, 3900

Orbit data source: Space-Track

COSMOS 252 DEB, 3900 is space debris in LEO originally from a launch on Fri, 01 Nov 1968 UTC launched from the Tyuratam Missile And Space Complex (TTMTR). Debris objects in space refer to the collection of defunct objects orbiting the Earth. Examples of debris include non-operational satellites, rocket bodies, and fragments generated from explosions, collisions, or faulty payload assembly.

Loading next visibility...
Identifier
3900, 1968-097BM
Orbit
LEO
Country
Flag of CISCIS
Related business
Manufacturer
Unknown
Mission
Spacecraft
Bus & Motor
Unknown
Mass
Unknown
Launch date (UTC)
1968-11-01 (58 years ago)
Launch vehicle
Unknown
Launch site
Tyuratam Missile And Space Complex (TTMTR)
Object type
Payload
Rocket body
Debris
Shape & HBR
Unknown shape, 0.1 m
Radar Cross Section
Small (<0.1 m²)

Expand to show TLE details & history
Last TLE update: 9 hours ago

TLE from 9 hours ago
0 COSMOS 252 DEB
1  3900U 68097BM  26132.03019091  .00004322  00000-0  38625-3 0  9997
2  3900  62.1963 109.5579 0180235 242.5859 115.6793 14.85863270884164
Epoch: 2026-05-12T00:43Z
TLE epoch observation values (Epoch: 2026-05-12T00:43:28.494Z)
Latitude
-0.00003°
Longitude
-131.12126°
Altitude
669.065 km
Speed
7.493 km/s
True Right ascension
07h 18m 13s
True Declination
0° 00' 00"
Sunlit
Object was in daylight at epoch
Visualization orbit readout
Latitude
Unknown
Longitude
Unknown
Altitude
Unknown
Speed
Unknown
Apparent Right ascension
Unknown
Apparent Declination
Unknown
Sunlit
N/A
Visualization observer readout
Local Sidereal Time
17:47:19
Azimuth
Unknown
Elevation
Unknown
Doppler factor
Unknown
Orbital elements
Apogee altitude
735.734 km
Perigee altitude
483.84 km
Semi-major axis
6,987.924 km
Eccentricity
0.01802
Inclination
62.1963°
RAAN
109.5579°
Arg. of periapsis
242.5859°
True anomaly
117.52233°
Mean anomaly
115.6793°
Eccentric anomaly
116.60265°
Mean motion
3.71553 °/min
Orbital period
96.89 mins
BSTAR
0.00038625
Loading maneuver chart data...
Computing Atmospheric mass density...

Documentation

Showing up to 5 results
|